{"data":{"norad_id":48425,"intl_designator":"2021-039C","name":"YAOGAN-30 09C","alt_names":[],"object_type":"PAYLOAD","status":"ACTIVE","operator":null,"country":"PRC","launch_date":"2021-05-06","launch_site_code":"XICLF","launch_vehicle":null,"mission":null,"orbit_class":"UNKNOWN","rcs_meters":null,"size_class":null,"mass_kg":null,"dimensions":null,"purposes":[],"wikipedia_slug":null,"has_3d_model":false,"image_url":null,"decayed_at":null,"tle_current":{"epoch":"2026-05-25T04:43:22.738080Z","epoch_age_seconds":54161,"freshness":"FRESH","line1":"1 48425U 21039C   26145.19679095  .00001764  00000+0  13242-3 0  9994","line2":"2 48425  34.9937 170.8488 0002870 245.7028 114.3381 15.02473957276099","mean_motion":15.02473957,"eccentricity":0.000287,"inclination_deg":34.9937,"raan_deg":170.8488,"arg_perigee_deg":245.7028,"mean_anomaly_deg":114.3381,"bstar":0.00013242,"rev_number":27609,"period_min":95.841927461775,"perigee_km":557.27947257484,"apogee_km":561.26154448473,"semimajor_km":6937.4075085298,"source":"CELESTRAK","updated_at":"2026-05-25T13:37:56.818364Z"}}}